This is the latest recevied weather packets stored in our database for station/object IK1QAD-3. If no packets are shown the sender has not sent any weather packets the latest 10 day(s).
| Time | Temp. | Humidity | Pressure | Rain* | Wind** | Luminosity | Snow |
|---|---|---|---|---|---|---|---|
| 1777939112 | 15.56° C | 95% | 1014 hPa | 43.94 mm | - | - | - |
| 1777938809 | 16.11° C | 95% | 1014 hPa | 44.96 mm | - | - | - |
| 1777938521 | 16.11° C | 95% | 1014.1 hPa | 48.01 mm | - | - | - |
| 1777938221 | 16.11° C | 95% | 1014.2 hPa | 55.88 mm | - | - | - |
| 1777937921 | 16.11° C | 95% | 1014.2 hPa | 59.94 mm | - | - | - |
| 1777937615 | 16.11° C | 95% | 1014.3 hPa | 60.96 mm | - | - | - |
| 1777937311 | 16.11° C | 95% | 1014.4 hPa | 62.99 mm | - | - | - |
| 1777937005 | 15.56° C | 95% | 1014.4 hPa | 58.93 mm | - | - | - |
| 1777936723 | 15° C | 94% | 1014.6 hPa | 59.94 mm | - | - | - |
| 1777936422 | 15° C | 93% | 1014.5 hPa | 56.9 mm | - | - | - |
| 1777936117 | 15° C | 93% | 1014.6 hPa | 54.1 mm | - | - | - |
| 1777935815 | 15° C | 93% | 1014.7 hPa | 45.97 mm | - | - | - |
| 1777935507 | 14.44° C | 92% | 1014.6 hPa | 40.89 mm | - | - | - |
| 1777935223 | 14.44° C | 92% | 1014.7 hPa | 38.1 mm | - | - | - |
| 1777934919 | 15° C | 91% | 1014.7 hPa | 32 mm | - | - | - |
| 1777934611 | 15° C | 91% | 1014.9 hPa | 23.11 mm | - | - | - |
| 1777934308 | 15° C | 90% | 1015 hPa | 17.02 mm | - | - | - |
| 1777934019 | 15° C | 89% | 1015.2 hPa | 12.95 mm | - | - | - |
| 1777933713 | 15.56° C | 88% | 1015.2 hPa | 7.87 mm | - | - | - |
| 1777933409 | 15.56° C | 88% | 1015.2 hPa | 4.06 mm | - | - | - |
| 1777933124 | 15.56° C | 87% | 1015.2 hPa | 1.02 mm | - | - | - |
| 1777932822 | 15.56° C | 87% | 1015.1 hPa | 0 mm | - | - | - |
| 1777932515 | 15.56° C | 87% | 1015.1 hPa | 0 mm | - | - | - |
| 1777932212 | 15.56° C | 87% | 1015.3 hPa | 0 mm | - | - | - |
| 1777931916 | 15.56° C | 87% | 1015.2 hPa | 1.02 mm | - | - | - |
* Rain latest hour (hover to see other rain measurements)
** Current wind speed in m/s (hover to see current wind gust speed)